Regional Weather Roundup
Issued by NWS State College, PA

Home | Current Version | Previous Version | Text Only | Print | Product List | Glossary Off
Versions: 1 2 3 4 5 6 7 8 9 10 11 12 13 14 15 16 17 18 19 20 21 22 23 24 25 26 27 28 29 30 31 32 33 34 35 36 37 38 39 40 41 42 43 44 45 46 47 48 49 50

000
ASUS41 KCTP 070103
RWRCTP

REGIONAL WEATHER ROUNDUP
NATIONAL WEATHER SERVICE STATE COLLEGE PA
900 PM EDT WED MAY 06 2015

Note: "fair" indicates few or no clouds below 12,000 feet with no
significant weather and/or obstructions to visibility.

* = STATION THAT DOES NOT REPORT PRECIPITATION /E.G. RAIN...SNOW...ETC/
    THUNDER OR FOG.

PAZ002>004-007>009-013>016-020>023-029>032-070200-
WESTERN PENNSYLVANIA

CITY           SKY/WX    TMP DP  RH WIND       PRES   REMARKS
ERIE           CLEAR     63  53  70 N3        30.17S
MEADVILLE      CLEAR     64  55  72 N3        30.17S
FRANKLIN*      CLEAR     66  54  63 CALM      30.19S
NEW CASTLE     FAIR      70  60  70 CALM      30.17R
BEAVER COUNTY  CLEAR     66  61  82 CALM      30.16R
BUTLER*        CLEAR     68  59  73 E6        30.18S
PITTSBURGH INT MOCLDY    74  59  59 N9        30.15R
PITTSBURGH     CLOUDY    71  56  58 NE5       30.15R
INDIANA*       CLEAR     66  63  88 SE7       30.21S
LATROBE        PTCLDY    68  59  73 NE7       30.17R
WASHINGTON CO* CLEAR     72  55  56 N5        30.17R
$$

PAZ004>006-010>012-017>019-024>028-033>037-041-042-045-046-049>053-070200-
CENTRAL PENNSYLVANIA

CITY           SKY/WX    TMP DP  RH WIND       PRES   REMARKS
BRADFORD       CLOUDY    56  54  93 SE3       30.22R
DUBOIS         PTCLDY    62  56  80 E6        30.20R
CLEARFIELD     CLOUDY    59  56  89 NE5       30.22R
JOHNSTOWN      CLOUDY    60  59  96 E3        30.21R FOG
ALTOONA        CLOUDY    62  59  90 NE6       30.22R
STATE COLLEGE  CLOUDY    57  55  94 NE6       30.22R HAZE
WILLIAMSPORT   MOCLDY    57  54  89 CALM      30.21F
SELINSGROVE    CLOUDY    59  56  89 CALM      30.24R
FT INDIANTOWN  CLOUDY    61  51  71 VRB3      30.22S
CAPITAL CITY   CLOUDY    59  53  80 CALM      30.23R
HARRISBURG     CLOUDY    60  53  77 CALM      30.21R
YORK           MOCLDY    62  52  69 NE6       30.21R
$$

PAZ038>040-043-044-047-048-054-055-060>062-067>071-070200-
EASTERN PENNSYLVANIA

CITY           SKY/WX    TMP DP  RH WIND       PRES   REMARKS
SCRANTON       CLOUDY    64  49  57 CALM      30.22S
MOUNT POCONO   MOCLDY    55  47  74 CALM      30.24S
ALLENTOWN      CLOUDY    63  48  58 CALM      30.23R
QUAKERTOWN*    PTCLDY    57  48  72 CALM      30.23S
READING        CLOUDY    61  48  62 NE3       30.21S
LANCASTER      CLOUDY    59  54  83 NE6       30.21R
COATESVILLE    MOCLDY    61  48  63 CALM      30.22S
POTTSTOWN      PTCLDY    60  48  64 CALM      30.23S
BLUE BELL      PTCLDY    61  50  67 CALM      30.22R
DOYLESTOWN     CLOUDY    59  49  69 CALM      30.22R
WILLOW GROVE   NOT AVBL
NORTH PHILA    PTCLDY    63  48  58 E7        30.24R
PHILADELPHIA   MOCLDY    65  50  58 E8        30.23R
$$



USA.gov is the U.S. government's official web portal to all federal, state and local government web resources and services.